COSMOS 2327

Satellite information

Favourite Embed

Satellite Type and Status

PAYLOADIN ORBIT

Key statistics

Satellite COSMOS 2327 at a glance.

Uptime

10876

Days in orbit

Revolutions

≈ 13.7

Per day

Orbit

LEO

Low Earth Orbit

Inclination

83.0

Latest

Satellite identification and parameters

Extended collection of information and parameters for COSMOS 2327.

Object identification

Identified? True

Debris? False

Object name: COSMOS 2327

International designator: 1996-004A

Object number (NORAD): 23773

Object ID (CCSDS): 23773

Country: COMMONWEALTH OF INDEPENDENT STATES (CIS)

Current information (Y/N): Y

RCS size: LARGE

Orbital parameters

Period: 104.746 minutes

Inclination: 82.9799 deg

SMA: 7360.695 km

Apoapsis: 1017.52 km

Periapsis: 947.599 km

RAAN: 297.2698 deg

Eccentricy: 0.00474962

Argument of periapsis: 190.9821 deg

Mean anomaly: 233.6753 deg

Mean motion: 13.74752637 rev/day

Mean motion (dot): 0.00000097 rev/day2

B* drag term: 0.000085678644 1/REarth

Two-line elements (TLE)

Creation date: Oct. 26, 2025, 2:54 a.m.

Reference frame: TEME

Reference center: EARTH

Epoch: Oct. 25, 2025, 10:16 p.m. UTC

TLE line 0: 0 COSMOS 2327

TLE line 1: 1 23773U 96004A 25298.92842332 .00000097 00000-0 85679-4 0 9995

TLE line 2: 2 23773 82.9799 297.2698 0047496 190.9821 233.6753 13.74752637493449

Live tracking on map

Real-time ground track for satellite COSMOS 2327.

In-orbit conjunctions

A list of the most updated potential collisions computed for object COSMOS 2327.

Target Orbit TCA Probability of collision Miss distance Type
CZ-6A DEB LEO 2025-01-05 05:42:26 0.0008972154 772.0 (m) DEBRIS
THORAD AGENA D DEB SSO 2024-11-02 15:28:16 0.0001141521 410.0 (m) DEBRIS
FENGYUN 1C DEB SSO 2024-11-02 11:50:13 0.001162907 101.0 (m) DEBRIS

Associated space launch

Navigation satellite providing location information for the Tsiklon-B navigation system

COSMOS 2327 was lifted into orbit during the mission ‘Kosmos-3M | Parus 85’, on board a Kosmos-3M space rocket.

The launch took place on Jan. 16, 1996, 3:33 p.m. from 132/1 (132L).

For more information about the launch, click the button.

Launch to space Kosmos-3M | Parus 85
Kosmos-3M | Parus 85

Agency: N/A

Status: Launch Successful

Launch date: Jan. 16, 1996, 3:33 p.m. UTC

Rocket: Kosmos-3M

Launch pad: 132/1 (132L)

Location: Plesetsk Cosmodrome, Russian Federation

...

Latest news about this satellite

There are no fresh news available about this satellite. Check back as we update our databases every day.


Newsletter sign-up

Weekly statistics, charts and insights to help you stay on top of the space industry.